Location: Albany
(35.0170°S, 117.8920°E)
Time: 16:10:23
(UTC+08:00)

Explorer 11/Cluster Stage 4 - Pass Details

Date: 24 January 2021
Orbit: 467 x 1257 km, 28.8° (Epoch: 02 March)

Event Time Altitude Azimuth Distance (km) Brightness Sun altitude
Rises 10:32:54 0° 285° (WNW) 3,215 9.5 61.4°
Reaches altitude 10° 10:35:44 10° 292° (WNW) 2,150 8.8 62.0°
Maximum altitude 10:40:17 37° 359° (N) 935 7.8 62.8°
Drops below altitude 10° 10:44:05 10° 67° (ENE) 1,792 9.0 63.5°
Sets 10:46:16 0° 76° (ENE) 2,609 9.6 63.8°
